COSMOS 1275 DEB

Satellite information

Favourite Embed

Satellite Type and Status

DEBRISIN ORBIT

Key statistics

Satellite COSMOS 1275 DEB at a glance.

Uptime

16044

Days in orbit

Revolutions

≈ 13.9

Per day

Orbit

LEO

Low Earth Orbit

Inclination

83.0

Latest

Satellite identification and parameters

Extended collection of information and parameters for COSMOS 1275 DEB.

Object identification

Identified? True

Debris? True

Object name: COSMOS 1275 DEB

International designator: 1981-053HL

Object number (NORAD): 13816

Object ID (CCSDS): 13816

Country: COMMONWEALTH OF INDEPENDENT STATES (CIS)

Current information (Y/N): Y

RCS size: SMALL

Orbital parameters

Period: 103.816 minutes

Inclination: 82.9861 deg

SMA: 7317.067 km

Apoapsis: 1053.84 km

Periapsis: 824.024 km

RAAN: 17.1852 deg

Eccentricy: 0.0157041

Argument of periapsis: 264.7756 deg

Mean anomaly: 149.6663 deg

Mean motion: 13.87066255 rev/day

Mean motion (dot): 0.00002104 rev/day2

B* drag term: 0.0016191 1/REarth

Two-line elements (TLE)

Creation date: May 8, 2025, 3:01 a.m.

Reference frame: TEME

Reference center: EARTH

Epoch: May 7, 2025, 5:08 p.m. UTC

TLE line 0: 0 COSMOS 1275 DEB

TLE line 1: 1 13816U 81053HL 25127.71394771 .00002104 00000-0 16191-2 0 9999

TLE line 2: 2 13816 82.9861 17.1852 0157041 264.7756 149.6663 13.87066255104041

Live tracking on map

Real-time ground track for satellite COSMOS 1275 DEB.

In-orbit conjunctions

A list of the most updated potential collisions computed for object COSMOS 1275 DEB.

Target Orbit TCA Probability of collision Miss distance Type
COSMOS 1275 DEB LEO 2024-11-14 13:11:14 0.0002228002 696.0 (m) DEBRIS
FENGYUN 1C DEB SSO 2024-11-11 09:42:44 0.000529772 395.0 (m) DEBRIS
SL-8 R/B LEO 2024-09-27 03:59:14 0.0006204584 175.0 (m) ROCKET BODY

Associated space launch

Navigation satellite providing location information for the Tsiklon-B navigation system

COSMOS 1275 DEB was lifted into orbit during the mission ‘Kosmos-3M | Parus 27’, on board a Kosmos-3M space rocket.

The launch took place on June 4, 1981, 3:41 p.m. from 132/2.

For more information about the launch, click the button.

Launch to space Kosmos-3M | Parus 27
Kosmos-3M | Parus 27

Agency: N/A

Status: Launch Successful

Launch date: June 4, 1981, 3:41 p.m. UTC

Rocket: Kosmos-3M

Launch pad: 132/2

Location: Plesetsk Cosmodrome, Russian Federation

...

Latest news about this satellite

There are no fresh news available about this satellite. Check back as we update our databases every day.


Newsletter sign-up

Weekly statistics, charts and insights to help you stay on top of the space industry.